CHINASAT 11 (ZX 11)

Last updated on Jan. 17, 2021, 6:29 a.m. UTC

1 39157U 13020A   21016.91064221 -.00000295  00000-0  00000-0 0  9993
2 39157   0.0432 265.0948 0002066  54.6457 222.6446  1.00271886 28329
UTC
Height (km)
Latitude
Longitude
Inclination
Orbital Period
UTC large
Height (km)
Speed (km/s)
/
Latitude / Longitude
Inclination (degrees)
Orbital Period (minutes)
Azimuth
Elevation
Range (km)
Doppler Factor
iOS Compass Heading
iOS Angle

Next 30 passes for location: Hong Kong

Rise time Rise Azimuth (degrees) Set time Set Azimuth (degrees) Duration Max altitude (degrees)

No matching passes for this satellites